Voltar ao catálogo

CZ-4C R/B

AtivoSSO
NORAD 61572·ROCKET BODY·🇨🇳 China

Lançado Oct 15, 2024 de Jiuquan Satellite Launch Center

Loading…

Próximas Passagens (próximas 24 horas)

TLE

AtualizadoSource: Space-Track

Época: Sep 14, 2026, 08:16 UTC

1 61572U 24186B   26257.34482645  .00001203  00000-0  80356-4 0  9992
2 61572  97.8554 289.2824 0044822 202.3158 157.6121 15.08265994105117

Acompanhe CZ-4C R/B em tempo real com AllMySat

Download on the App Store